Weather Roundup
Issued by NWS Springfield, MO

Home | Current Version | Previous Version | Text Only | Print | Product List | Glossary On
Versions: 1 2 3 4 5 6 7 8 9 10 11 12 13 14 15 16 17 18 19 20 21 22 23 24 25 26 27 28 29 30 31 32 33 34 35 36 37 38 39 40 41 42 43 44 45 46 47 48 49 50
000
NZUS99 KSGF 231159
HRRSGF

HOURLY WEATHER
NATIONAL WEATHER SERVICE SPRINGFIELD MO
700 AM CDT SAT MAY 23 2015

......SGF CWA......

CITY           SKY/WX    TMP DP  RH WIND       PRES   REMARKS
SPRINGFIELD    CLOUDY    60  49  66 S13       30.24R
6HR MIN TEMP:  59; 6HR MAX TEMP:  60;

JOPLIN         LGT RAIN  57  55  93 E6        30.23R FOG
6HR MIN TEMP:  57; 6HR MAX TEMP:  61; 6HR PCP:  0.05;

WEST PLAINS    CLOUDY    59  48  67 E5        30.29R
6HR MIN TEMP:  58; 6HR MAX TEMP:  59;

ROLLA          CLOUDY    59  50  72 SE9       30.27S
6HR MIN TEMP:  56; 6HR MAX TEMP:  60;

OSAGE BEACH    CLOUDY    59  48  67 E5        30.26S
BRANSON        CLOUDY    55  52  88 E7        30.27R

......SURROUNDING SGF CWA......

CITY           SKY/WX    TMP DP  RH WIND       PRES   REMARKS
CHANUTE        CLOUDY    57  57 100 SE6       30.21R FOG
PARSONS        CLOUDY    57  57 100 VRB3      30.22R
COFFEYVILLE    CLOUDY    57  56  96 E5        30.19F
EMPORIA        CLOUDY    56  55  97 SE9       30.18F FOG
ROGERS AR      LGT RAIN  55  55 100 E9        30.24R FOG
SILOAM SPRINGS CLOUDY    57  52  82 SE6       30.23R
HARRISON AR    CLOUDY    57  51  80 SE6       30.26R
NEAR YELLVILLE PTSUNNY   57  52  82 CALM      30.25S

......KANSAS AND MISSOURI......

CITY           SKY/WX    TMP DP  RH WIND       PRES   REMARKS
KANSAS CTY INT LGT RAIN  57  54  89 S9G17     30.23R
DOWNTOWN KC    LGT RAIN  58  53  84 S5        30.22R
COLUMBIA       PTSUNNY   59  53  80 SE6       30.28R
SEDALIA        CLOUDY    60  51  72 SE7       30.26R
ST JOSEPH      LGT RAIN  57  55  93 CALM      30.22S
ST LOUIS       PTSUNNY   64  56  75 CALM      30.32R
SPIRIT OF STL  CLOUDY    60  58  92 CALM      30.30R
KIRKSVILLE     CLOUDY    58  55  90 SE5       30.28R
WICHITA        CLOUDY    56  55  97 E8        30.14F FOG
TOPEKA         CLOUDY    58  53  84 SE6       30.21R
OLATHE         CLOUDY    57  54  89 SE6       30.22R

......TENNESSEE......

CITY           SKY/WX    TMP DP  RH WIND       PRES   REMARKS
MEMPHIS        CLOUDY    64  51  62 E7        30.28R
NASHVILLE      PTSUNNY   54  51  90 CALM      30.35R

......ARKANSAS.......

CITY           SKY/WX    TMP DP  RH WIND       PRES   REMARKS
FAYETTEVILLE   CLOUDY    57  56  96 E5        30.23R
FT SMITH       CLOUDY    60  57  89 E9        30.22R
LITTLE ROCK    CLOUDY    65  56  72 CALM      30.25R

......OKLAHOMA.......

CITY           SKY/WX    TMP DP  RH WIND       PRES   REMARKS
TULSA          CLOUDY    60  58  92 E6        30.16S
PONCA CITY     CLOUDY    59  58  96 SE10      30.11F FOG
MCALESTER      CLOUDY    63  59  87 SE5       30.15S
OKLAHOMA CITY  FOG       60  59  96 SE10      30.09R VSB 1/2

......IOWA............

CITY           SKY/WX    TMP DP  RH WIND       PRES   REMARKS
DES MOINES     PTSUNNY   57  49  74 E3        30.26R
QUAD CITIES    SUNNY     56  48  74 CALM      30.29R

......ILLINOIS........

CITY           SKY/WX    TMP DP  RH WIND       PRES   REMARKS
QUINCY         MOSUNNY   58  51  78 S3        30.30R
CHICAGO        MOSUNNY   53  40  61 S6        30.34R




USA.gov is the U.S. government's official web portal to all federal, state and local government web resources and services.